www.pogodaiklimat.ru

Погода и климат >> Архив погоды >> Россия >> Ямало-Ненецкий АО >> Имени Попова


АРХИВ ПОГОДЫ на Имени Попова

Время (UTC), дата Ветер
(напр.,м/с)
 
Видим.   Явления Облачность Т
(С)
Тd
(С)
f
(%)
Тe
(С)
Тes
(С)
Комфортность P
(гПа)
Po
(гПа)
Тmin
(С)
Tmax
(С)
R
(мм)
R24
(мм)
S
(см)
12 15.01 ЮВ 3 20 км {снег} 10/0
[Ac und]
-22.6 -53.9 4 -31 -31 опасность
обморожения
993.9 993.1
15 15.01 Ю 3 4000 м слаб. снег 10/0
[Ac As]
-22.0 -24.5 80 -30 -30 993.9 993.1 -20.9 0.0
18 15.01 ЮВ 1 4000 м слаб. снег 10/0
[Ac As]
-22.3 -25.5 75 -26 -26 993.8 993.0
21 15.01 В 1 4000 м слаб. снег 10/0
[Ac As]
-19.4 -22.0 80 -22 -22 994.3 993.6
00 16.01 штиль 0 4000 м слаб. снег 10/0 330 м
[As op]
-19.7 -22.3 80 -20 -20 994.9 994.2
03 16.01 штиль 0 4000 м слаб. снег 10/8 270 м
[Frnb As op]
-18.6 -21.2 80 -19 -19 995.5 994.7 -22.7 0.3 24
06 16.01 СЗ 1 20 км {снег} 3/0
[Ac As]
-21.1 -52.8 4 -24 -24 996.7 995.9
09 16.01 СЗ 3 20 км 1/0
[Ci fib]
-22.6 -53.9 4 -31 -31 опасность
обморожения
998.1 997.6
12 16.01 СЗ 3 20 км ясно -23.8 -54.9 4 -32 -32 опасность
обморожения
1000.0 999.2
15 16.01 СЗ 2 20 км ясно -23.6 -54.7 4 -30 -30 1001.0 1000.3 -18.4 0.0
18 16.01 З 2 20 км ясно -22.4 -24.9 80 -29 -29 1002.4 1001.6
21 16.01 ЮЗ 2 20 км 3/0
[Ac trans]
-21.5 -24.0 80 -28 -28 1003.2 1002.4
00 17.01 Ю 3 4000 м слаб. снег 10/0
[As op]
-25.5 -28.0 79 -34 -34 опасность
обморожения
1003.5 1002.7
03 17.01 Ю 4 4000 м слаб. снег 10/0 400 м
[As op]
-20.0 -22.6 80 -29 -29 1002.3 1001.5 -26.7 0.0 24
06 17.01 Ю 6 500 м сильн. снег {метель} 10/10 210 м
[Frnb Ns]
-15.3 -18.0 80 -25 -25 1001.4 1000.7
09 17.01 Ю 8-10
{11}
500 м слаб. снег {метель} 10/10 240 м
[Frnb Ns]
-14.4 -16.4 85 -25 -25 1000.8 1000.1
12 17.01 Ю 8-11
{11}
500 м снег {метель} 10/0 400 м
[As op]
-17.8 -19.7 85 -30 -30 1000.0 999.2
15 17.01 Ю 7
{11}
500 м сильный позёмок 10/0
[Cs]
-22.6 -25.1 80 -35 -35 опасность
обморожения
998.5 997.8 -13.8 0.4
18 17.01 В 4 4000 м {снег, метель} 10/0
[Cs]
-21.1 -23.6 80 -30 -30 995.5 994.8
21 17.01 В 9-11
{11}
4000 м слаб. снег {метель} 10/0 330 м
[As op]
-17.4 -20.0 80 -30 -30 990.3 989.6
00 18.01 В 8-12
{14}
500 м слаб. снег {метель} 10/0 400 м
[As op]
-18.3 -20.9 80 -30 -30 986.8 986.1
03 18.01 СВ 6
{10}
4000 м слаб. снег {метель} 10/0 330 м
[As op]
-17.5 -20.1 80 -28 -28 982.6 981.8 -22.6 0.3 24
06 18.01 СВ 8 2000 м снег {метель} 10/10 240 м
[Frnb Ns]
-14.8 -48.3 4 -26 -26 977.9 977.2
09 18.01 В 4
{11}
2000 м снег {метель} 10/10 270 м
[Frnb Ns]
-16.6 -18.5 85 -25 -25 975.4 974.7
12 18.01 З 1 20 км {снег, метель} 9/0
[Ac As]
-18.9 -51.2 4 -22 -22 975.5 974.8
15 18.01 Ю 1 20 км ледяные иглы {снег} 3/0
[Ac As]
-20.4 -52.3 4 -23 -23 975.8 975.1 -12.5 0.4
18 18.01 Ю 2 10 км слаб. снег 10/3 1000 м
[Sc As op]
-19.1 -21.7 80 -25 -25 976.4 975.7
21 18.01 ЮВ 4 20 км {снег} 10/0
[As trans]
-25.4 -27.8 80 -36 -36 опасность
обморожения
977.7 977.0
00 19.01 В 5 4000 м {снег} 10/0
[As trans]
-26.6 -29.0 80 -38 -38 опасность
обморожения
979.7 978.9
03 19.01 СВ 5 20 км 10/0
[Cs]
-29.2 -32.2 75 -42 -42 опасность
обморожения
981.9 981.1 -29.2 0.0 23
06 19.01 СВ 3 20 км ясно -27.8 -57.8 4 -37 -37 опасность
обморожения
983.7 982.9 -30.4
09 19.01 С 5 20 км ясно -23.1 -25.5 81 -34 -34 опасность
обморожения
985.8 985.1
12 19.01 С 4 20 км ясно -22.5 -53.9 4 -32 -32 опасность
обморожения
987.7 987.0
15 19.01 С 5 20 км 10/0
[Ac und]
-19.2 -51.4 4 -29 -29 989.5 988.7 -19.2
18 19.01 С 7 10 км слаб. снег {метель} 10/0
[As op]
-19.2 -21.8 80 -31 -31 опасность
обморожения
991.4 990.6
21 19.01 С 7 20 км позёмок {снег} 8/0
[Ac trans]
-19.8 -22.4 80 -31 -31 опасность
обморожения
993.9 993.1
00 20.01 СЗ 6 20 км {снег, метель} 4/0
[Ac As]
-20.9 -23.4 80 -32 -32 опасность
обморожения
996.1 995.4
03 20.01 СЗ 3 20 км 3/0
[Ac trans]
-21.9 -24.4 80 -30 -30 997.7 996.9 -23.3 0.0 23
06 20.01 ЮЗ 2 20 км 1/0
[Ci fib]
-21.4 -23.9 80 -27 -27 998.7 998.0
09 20.01 Ю 5 2000 м дымка 1/0
[Ac As]
-28.7 -31.8 75 -41 -41 опасность
обморожения
999.6 998.8
12 20.01 ЮВ 5 10 км слаб. снег 10/0
[Ac As]
-26.1 -28.5 80 -38 -38 опасность
обморожения
999.9 999.1
15 20.01 ЮВ 6 2000 м снег {метель} 10/0 330 м
[As op]
-19.5 -22.1 80 -30 -30 998.3 997.6 -19.5 0.0
18 20.01 ЮВ 7 2000 м снег {метель} 10/0 330 м
[As op]
-13.8 -16.5 80 -24 -24 996.4 995.7
21 20.01 З 6 4000 м слаб. снег {метель} 10/0 300 м
[As op]
-10.6 -11.9 90 -19 -19 997.7 997.0
00 21.01 З 4 20 км {снег, метель} 10/10 300 м
[Sc]
-9.6 -10.8 91 -17 -17 1000.1 999.4
03 21.01 Ю 1 500 м слаб. снег {туман} ?/? -11.0 -12.3 90 -13 -13 1002.1 1001.4 -19.5 0.5 23
06 21.01 ЮВ 2 20 км в посл. час туман 9/0
[Ac As]
-13.6 -47.3 4 -18 -18 1003.3 1002.5
09 21.01 ЮВ 4 20 км {снег} 10/10 360 м
[Sc]
-11.3 -45.7 4 -18 -18 1004.6 1003.9
12 21.01 Ю 5 20 км {снег} 10/0
[Ac und]
-8.9 -44.0 4 -16 -16 1006.0 1005.3
15 21.01 Ю 7 20 км позёмок 9/0
[Ac trans]
-14.3 -47.9 4 -24 -24 1007.3 1006.6 -7.0 0.3
18 21.01 ЮВ 6 20 км {метель} 8/0
[Ci fib]
-22.1 -24.0 84 -34 -34 опасность
обморожения
1009.3 1008.5
21 21.01 ЮВ 5 20 км 10/0
[Cs]
-22.8 -25.3 80 -34 -34 опасность
обморожения
1010.3 1009.5
00 22.01 В 6 20 км 10/0
[Cs]
-20.2 -22.8 80 -31 -31 опасность
обморожения
1010.5 1009.7
03 22.01 В 7 20 км 10/0
[Cs]
-17.4 -19.3 85 -28 -28 1010.1 1009.4 -23.4 23
06 22.01 В 9-11
{12}
20 км 3/0
[As trans]
-15.2 -48.5 4 -27 -27 1009.6 1008.9
09 22.01 В 9-11
{13}
4000 м метель 3/0
[Ac As]
-15.2 -48.5 4 -27 -27 1009.6 1008.9

 

Местоположение метеостанции Имени Попова (Ямало-Ненецкий АО, Россия): широта 73.33 долгота 70.05 высота над уровнем моря 6 м.

В архиве по умолчанию представлена погода на Имени Попова за последнюю неделю. Архивные данные за месяц целиком и за предыдущие месяцы, начиная с января 2011 года, Вы можете получить, выбрав интересующий диапазон дат из раскрывающегося списка и нажав кнопку "Ввод!".


*Определитесь, кто Вы:
робот инопланетянин человек

Внимание! Время в таблицах - всемирное. Для получения местного времени необходимо прибавить поправку, которая равна 5 ч.

Смотрите также архив погоды в соседних городах и на ближайших метеорологических станциях:

Погода в Тамбее (Ямало-Ненецкий АО, Россия) (214 км)
Погода на Острове Диксон (Красноярский край, Россия) (329 км)
Погода в Сеяхе (Ямало-Ненецкий АО, Россия) (362 км)
Погода в Гыде (Ямало-Ненецкий АО, Россия) (396 км)
Погода на Мысе Желания (Архангельская область, Россия) (405 км)
Погода в Марресале (Ямало-Ненецкий АО, Россия) (418 км)
Погода в Сопочной Карге (Красноярский край, Россия) (450 км)
Погода на Островах Известий ЦИК (Красноярский край, Россия) (477 км)
Погода в Усть-Каре (Ненецкий АО, Россия) (489 км)
Погода в Амдерме (Ненецкий АО, Россия) (493 км)

Пояснения к столбцам:

Ветер - указаны скорость ветра в м/с - средняя за 10 мин, порывы в срок и между сроками (в фигурных скобках) и направление, откуда дует ветер: С - северный, СВ - северо-восточный, В - восточный, ЮВ - юго-восточный, Ю - южный, ЮЗ - юго-западный, З - западный, СЗ - северо-западный.
Видимость - горизонтальная дальность видимости в метрах или километрах. При видимости от 1 до 10 км при отсутствии осадков обычно наблюдается дымка, при ухудшении видимости до 1 км и менее - туман. В сухую погоду видимость может ухудшаться дымом, пылью или мглою.
Явления - указаны атмосферные явления, наблюдавшиеся в срок или в последний час перед сроком; фигурными скобками обозначены явления, наблюдавшиеся между сроками (за 1-3 часа до срока); квадратными скобками обозначены град или гололедные отложения с указанием их диаметра в мм.
Облачность - указаны через наклонную черту общая и нижняя облачность в баллах и высота нижней границы облаков в метрах; квадратными скобками обозначены формы облаков: Ci - перистые, Cs - перисто-слоистые, Cc - перисто-кучевые, Ac - высококучевые, As - высокослоистые, Sc - слоисто-кучевые, Ns - слоисто-дождевые, Cu - кучевые, Cb - кучево-дождевые. Подробнее классификацию облаков см. в Атласе облаков (PDF).
T - Температура воздуха - температура, измеренная на высоте 2 м над землей.
Td - Температура точки росы - температура, при понижении до которой содержащийся в воздухе водяной пар достигнет насыщения.
f - Относительная влажность воздуха - влажноcть воздуха, измеренная на высоте 2 м над землей.
Te - Эффективная температура - температура, которую ощущает одетый по сезону человек в тени. Характеристика душности погоды. При расчете учитывается влияние влажности воздуха и скорости ветра на теплоощущения человека.
Tes - Эффективная температура на солнце - температура, которую ощущает человек, с поправкой на солнечный нагрев. Характеристика знойности погоды. Зависит от высоты солнца над горизонтом, облачности и скорости ветра. Ночью, в пасмурную погоду, а также при ветре 12 м/с и более поправка равна нулю.
P - Атмосферное давление - приведенное к уровню моря атмосферное давление.
Po - Атмосферное давление - измеренное на уровне метеостанции атмосферное давление.
Tmin - Минимальная температура - минимум температуры воздуха на высоте 2 м над землей.
Tmax - Максимальная температура - максимум температуры воздуха на высоте 2 м над землей.
R - Количество осадков - Количество выпавших осадков за период времени, мм. При наведении курсора мыши на число - период времени, за который выпало указанное количество осадков.
R24 - Количество осадков - Количество выпавших осадков за 24 часа, мм.
S - Снежный покров - Высота снежного покрова, см. При наведении курсора мыши на число - состояние снежного покрова и степень покрытия местности в баллах.